Regional Weather Roundup
Issued by NWS

Home | Current Version | Previous Version | Text Only | Print | Product List | Glossary Off
Versions: 1 2 3 4 5 6 7 8 9 10 11 12 13 14 15 16 17 18 19 20 21 22 23 24 25 26 27 28 29 30 31 32 33 34 35 36 37 38 39 40 41 42 43 44 45 46 47 48 49 50

000
ASUS43 KMPX 192201
RWRMN
WEATHER ROUNDUP FOR MINNESOTA
NATIONAL WEATHER SERVICE TWIN CITIES/CHANHASSEN MN
500 PM CDT THU APR 19 2018


NOTE: "FAIR" INDICATES FEW OR NO CLOUDS BELOW 12,000 FEET WITH NO
SIGNIFICANT WEATHER AND/OR OBSTRUCTIONS TO VISIBILITY. N/A MEANS
CURRENT SKY AND/OR WEATHER CONDITIONS ARE NOT AVAILABLE.

MNZ060>063-068>070-192300-
   Twin Cities Metro

CITY           SKY/WX    TMP DP  RH WIND       PRES   REMARKS
TWIN CITIES    FAIR      52  17  25 CALM      30.44F
ST PAUL        FAIR      52  18  26 NW7       30.45F
CRYSTAL        FAIR      50  17  27 NW6       30.43F
BLAINE         SUNNY     52  18  25 NW6       30.44F
LAKEVILLE      FAIR      46  21  36 W7        30.45F
EDEN PRAIRIE   FAIR      49  21  33 W10       30.43F
SOUTH ST PAUL  FAIR      51  14  23 N3        30.44F
LAKE ELMO      FAIR      48  23  37 W3        30.45F
$$
MNZ001>005-007-008-013>017-022>024-027-028-192300-
   Northwest Minnesota

CITY           SKY/WX    TMP DP  RH WIND       PRES   REMARKS
BEMIDJI        FAIR      53  19  26 NW7       30.37F
HALLOCK        FAIR      57  34  41 S9        30.35F
ROSEAU         FAIR      55  30  38 SW8       30.37S
WARROAD        FAIR      54  21  28 NE6       30.37S
THIEF RVR FALL FAIR      53  23  31 W8        30.39F
CROOKSTON      FAIR      54  30  40 W6        30.40S
FOSSTON        FAIR      57  21  24 W5        30.39S
DETROIT LAKES  FAIR      54  25  32 W6        30.41S
MOORHEAD       FAIR      55  27  33 SW3       30.40F
PARK RAPIDS    FAIR      54  21  27 S8        30.39S
MAHNOMEN       FAIR      55  24  30 SW5       30.38F
$$
MNZ006-009>011-018-025>026-192300-
   North Central Minnesota

CITY           SKY/WX    TMP DP  RH WIND       PRES   REMARKS
BAUDETTE       FAIR      55  18  23 VRB7      30.36F
FLAG ISLAND    FAIR      41  23  48 SE6       30.36F
INTL FALLS     FAIR      54  11  18 NW3       30.36F
WASKISH        PTSUNNY   54  18  24 SW7       30.37F
BIG FORK       FAIR      55  16  21 SW6       30.37F
LONGVILLE      FAIR      55  12  18 SW3       30.38F
GRAND RAPIDS   FAIR      52  12  20 W7        30.39F
CRANE LAKE     FAIR      52   9  17 N6        30.39S
ORR            FAIR      54   9  16 W5        30.35S
COOK           FAIR      54  16  22 W8        30.37F
WALKER         FAIR      53  16  22 E6        30.37S
$$
MNZ012-019>021-037-192300-
   Northeast Minnesota

CITY           SKY/WX    TMP DP  RH WIND       PRES   REMARKS
DULUTH         FAIR      52  14  22 NW7       30.37F
ELY            FAIR      52   7  16 CALM      30.36S
HIBBING        FAIR      52  12  20 SW8       30.37F
EVELETH        FAIR      53  11  19 W3        30.38F
DULUTH HARBOR  FAIR      52  18  25 E6        30.39F
TWO HARBORS    FAIR      63  27  25 W7        30.35F
SILVER BAY     FAIR      54  18  24 S8        30.35F
GRAND MARAIS     N/A     40  28  62 SW9       30.38F
G MARAIS ARPRT FAIR      50   7  17 W8        30.35F
$$
MNZ029>031-032-039>041-046>048-054>057-064-192300-
   West Central Minnesota

CITY           SKY/WX    TMP DP  RH WIND       PRES   REMARKS
FERGUS FALLS   FAIR      54  30  40 CALM      30.38F
WHEATON        MOSUNNY   55  28  35 W6        30.43R
MORRIS         SUNNY     54  36  50 S13       30.41F
ALEXANDRIA     FAIR      54  30  40 W9        30.42S
ELBOW LAKE     FAIR      53  32  44 CALM      30.41F
WADENA         FAIR      52  28  40 SW6       30.40S
GLENWOOD       FAIR      52  27  37 SW8       30.43S
APPLETON       SUNNY     50  25  37 S12       30.44S
BENSON         SUNNY     52  19  28 W12       30.46S
ORTONVILLE     SUNNY     54  30  40 SW10      30.43R
MADISON        SUNNY     48  30  49 S9        30.45S
WILLMAR        FAIR      48  30  49 SW10      30.47S
$$
MNZ033>034-036-042>043-049>051-058-059-192300-
   Central Minnesota

CITY           SKY/WX    TMP DP  RH WIND       PRES   REMARKS
ST CLOUD       FAIR      52  24  33 SW8       30.42F
SAUK CENTRE    FAIR      51  26  39 SW5       30.42F
PAYNESVILLE    FAIR      51  28  41 SW5       30.44S
AITKIN         FAIR      54  16  22 SW7       30.38F
PINE RIVER     FAIR      52  19  28 SW6       30.42S
BRAINERD       FAIR      54  16  22 SW6       30.40F
STAPLES        FAIR      52  25  35 W7        30.41S
LONG PRAIRIE   FAIR      52  30  43 SW8       30.42F
LITTLE FALLS   FAIR      52   9  17 SW6       30.42
LITCHFIELD     FAIR      48  27  43 CALM      30.45F
BUFFALO        FAIR      48  24  38 S7        30.45F
MAPLE LAKE     FAIR      50  29  45 SW7       30.45S
HUTCHINSON     FAIR      46  27  48 S3        30.47F
$$
MNZ037-044-045-052-053-192300-
   East Central Minnesota

CITY           SKY/WX    TMP DP  RH WIND       PRES   REMARKS
PRINCETON      FAIR      55  21  26 W5        30.43F
MORA           FAIR      50  21  32 W9        30.43F
CAMBRIDGE      FAIR      54  30  40 NW3       30.43F
RUSH CITY      FAIR      52  22  30 W7        30.43S
MOOSE LAKE     FAIR      54  19  26 W6        30.38S
HINCKLEY       FAIR      54  21  28 W5        30.41F
CLOQUET        FAIR      55   9  15 SW5       30.38S
MCGREGOR       FAIR      55  16  21 SW5       30.39S
$$
MNZ071>073-080-081-089-090-097-098-192300-
   Southwest Minnesota

CITY           SKY/WX    TMP DP  RH WIND       PRES   REMARKS
MONTEVIDEO     SUNNY     48  21  34 SW9       30.46S
GRANITE FALLS  SUNNY     44  31  59 S7        30.48S
CANBY          SUNNY     48  22  35 SW6       30.46S
MARSHALL       SUNNY     44  26  49 W5        30.47S
REDWOOD FALLS  SUNNY     42  23  46 SW8       30.46F
OLIVIA         SUNNY     46  32  57 SW8       30.46S
PIPESTONE      SUNNY    N/A N/A N/A S5        30.44F
WINDOM         SUNNY     41  18  38 SW7       30.46S
JACKSON        SUNNY     39  21  48 SE3       30.47S
TRACY          SUNNY     42  29  61 SW6       30.46S
SLAYTON        SUNNY     41  30  63 SW7       30.47S
$$
MNZ065>067-074>077-082>085-091>093-192300-
   South Central Minnesota

CITY           SKY/WX    TMP DP  RH WIND       PRES   REMARKS
MANKATO        FAIR      47  20  34 CALM      30.46F
NEW ULM        SUNNY     43  21  42 CALM      30.46F
ST JAMES       SUNNY     43  18  36 S3        30.48S
FAIRMONT       SUNNY     39  20  46 CALM      30.47F
GLENCOE        FAIR      46  24  43 CALM      30.45F
OWATONNA       FAIR      43  28  56 W6        30.46F
WASECA         FAIR      41  28  60 CALM      30.47F
ALBERT LEA     FAIR      39  18  41 CALM      30.46F
$$
MNZ078>079-086>088-094>096-192300-
   Southeast Minnesota

CITY           SKY/WX    TMP DP  RH WIND       PRES   REMARKS
ROCHESTER      FAIR      42  26  53 NW8       30.45F
RED WING       FAIR      52  10  19 N5        30.44F
STANTON        FAIR      46  23  39 W3        30.45S
DODGE CENTER   FAIR      43  18  36 W6        30.45F
WINONA         FAIR      48  21  34 NW6       30.44S
AUSTIN         FAIR      43  21  42 NW7       30.45F
PRESTON        FAIR      43  21  42 NW7       30.45F
$$
ABBREVIATIONS USED IN REMARKS
   TC - TEMPERATURES IN CELSIUS
  WCI - WIND CHILL INDEX
   HX - HEAT INDEX
  VSB - VISIBILITY
$$



USA.gov is the U.S. government's official web portal to all federal, state and local government web resources and services.